Temp
9 9 9 9 9 10 9 10 10 10 10 10 10 10 10 10 10 10 11 11 11 10 10 10 10 10 9 9 9 9 8 9 10 11 11 10 10 10 10 10 10 10 10 9 9
8 8 8 9 9 9 9 9 9 9 10 10 10 10 10 10 10 10 10 10 10 10 10 10 10 10 9 9 9 8 8 9 9 10 9 9 9 10 9 10 10 9 9 9 9
8 8 8 8 8 9 9 9 9 9 9 9 9 9 9 9 9 10 9 9 10 9 10 9 9 9 9 8 8 8 9 9 8 8 8 9 9 8 9 9 9 9 9 8 9
8 8 8 8 8 8 8 8 8 9 9 9 9 9 9 9 9 10 9 9 9 9 9 9 9 9 9 8 8 7 7 7 8 8 7 8 8 8 8 8 9 9 9 9 9
8 8 8 8 8 8 8 8 8 8 8 9 9 9 9 9 9 9 9 9 9 9 9 8 8 7 7 7 6 6 7 7 7 7 8 8 9 9 9 9 8 9 8 9 8
7 7 7 7 7 7 8 8 8 8 8 9 9 9 9 9 9 9 8 8 8 8 8 8 8 5 5 6 7 7 7 6 8 8 7 7 8 7 10 9 9 8 8 8 9
6 6 6 6 7 7 7 7 8 8 8 8 8 9 9 9 9 8 8 8 8 8 7 7 7 5 5 6 6 6 6 8 9 9 8 7 7 8 9 8 8 7 8 7 7
6 6 6 6 7 7 7 7 7 8 8 8 8 8 9 9 9 9 8 8 8 8 7 7 7 7 7 6 6 5 6 6 9 8 8 7 7 9 8 8 8 8 8 8 8
6 6 6 6 6 6 7 7 7 7 7 8 8 8 8 8 9 9 8 8 8 7 7 7 6 6 6 6 5 5 6 7 8 8 7 7 7 9 7 7 8 8 8 8 8
6 6 5 5 6 6 6 6 6 6 7 7 7 7 7 7 8 8 7 7 7 6 6 6 6 5 5 5 4 6 7 8 8 8 8 7 7 7 7 7 7 7 7 7 7
5 5 4 4 4 5 5 6 6 6 7 6 6 6 6 7 7 6 6 6 6 5 6 5 4 5 6 5 5 5 6 6 6 7 7 7 7 7 7 6 7 7 8 8 8
4 4 3 3 3 3 4 4 4 5 7 6 6 6 7 7 6 5 5 5 5 5 4 3 3 4 4 5 5 5 5 5 6 6 6 6 6 6 6 8 8 8 8 8 8
4 3 3 3 3 3 3 3 3 3 4 6 6 6 6 5 5 3 4 4 4 3 3 4 4 5 5 4 4 5 5 5 5 5 5 5 6 6 7 8 8 8 8 7 7
5 4 3 3 3 3 3 2 2 2 4 4 4 4 4 3 3 3 3 4 3 3 3 4 4 4 5 5 5 4 5 5 4 5 5 5 5 6 7 8 8 8 8 8 8
4 4 3 2 2 2 1 1 2 2 3 3 3 3 3 3 2 2 2 3 3 3 3 3 4 4 4 4 4 5 4 4 5 4 4 4 5 6 7 7 8 8 8 8 8
4 2 2 1 1 2 1 0 1 1 3 2 2 2 2 1 2 2 2 3 3 3 3 3 4 4 4 4 4 4 4 4 4 4 3 4 5 6 6 7 8 8 7 7 7
3 1 1 0 0 0 0 -0 0 1 3 1 1 2 2 1 2 0 1 2 2 1 3 3 4 4 4 4 4 4 3 3 3 2 3 5 6 7 7 7 7 8 6 6 8
0 0 0 0 0 -1 -1 -1 -0 3 2 1 2 2 1 1 0 0 0 1 1 0 -0 1 3 4 3 2 1 4 4 3 1 2 3 6 5 6 6 6 7 7 7 7 7
-0 -0 -0 -0 -0 -1 -2 -2 1 0 0 1 1 0 1 -0 -2 -2 -2 -1 -1 -3 -2 -2 0 3 2 2 -0 2 2 2 3 3 3 4 5 5 6 6 6 6 6 6 5
0 0 0 -0 -1 -3 -3 -3 -1 -1 -1 -0 -1 -1 -1 -2 -3 -3 -3 -2 -3 -4 -6 -5 -5 -2 -3 -2 1 -0 1 2 2 1 0 4 4 5 6 6 5 5 5 5 5
-0 0 0 -1 -1 -3 -5 -3 -3 -2 -2 -1 -2 -2 -4 -4 -5 -5 -4 -4 -4 -5 -6 -7 -6 -5 -5 -4 -3 -2 -2 -2 -2 -1 0 2 3 5 6 6 5 5 5 5 5
0 0 -0 -1 -3 -4 -6 -4 -4 -3 -2 -2 -2 -3 -4 -5 -6 -6 -5 -5 -5 -6 -7 -7 -7 -7 -6 -6 -5 -3 -4 -4 -4 -2 -3 -2 1 2 0 1 3 4 4 5 5
-0 -0 -1 -2 -4 -5 -6 -5 -4 -3 -3 -3 -4 -4 -5 -5 -6 -7 -7 -7 -7 -8 -8 -8 -8 -8 -7 -5 -4 -4 -4 -5 -6 -5 -4 -3 -1 -1 -1 -1 -1 1 3 3 4
-1 -2 -3 -4 -5 -7 -7 -7 -5 -4 -3 -4 -5 -5 -6 -6 -7 -8 -7 -8 -8 -8 -8 -9 -9 -9 -9 -8 -7 -7 -6 -6 -6 -7 -6 -5 -4 -3 -3 -4 -2 -2 -0 2 2
-1 -4 -3 -4 -5 -7 -7 -7 -6 -4 -5 -5 -6 -6 -6 -7 -7 -8 -7 -7 -8 -8 -9 -10 -9 -9 -8 -8 -7 -7 -6 -6 -5 -5 -6 -5 -5 -4 -3 -3 -4 -1 -1 0 1
-4 -4 -4 -5 -7 -8 -7 -6 -7 -7 -6 -6 -6 -6 -8 -7 -7 -6 -9 -9 -9 -9 -9 -9 -9 -9 -9 -8 -8 -7 -7 -6 -6 -5 -5 -6 -6 -5 -3 -4 -4 -3 -1 -1 -1
-4 -4 -5 -5 -6 -7 -6 -6 -6 -7 -8 -7 -7 -8 -7 -7 -6 -7 -9 -9 -10 -10 -9 -10 -10 -10 -9 -9 -8 -8 -7 -6 -6 -5 -5 -5 -5 -4 -4 -3 -4 -4 -2 -1 -2
Height
3152 3151 3150 3149 3148 3147 3146 3145 3144 3143 3141 3140 3138 3137 3136 3136 3134 3132 3132 3132 3131 3131 3131 3131 3131 3131 3130 3131 3132 3133 3134 3133 3135 3137 3135 3134 3132 3133 3133 3134 3136 3136 3138 3137 3134
3150 3149 3148 3147 3146 3145 3144 3143 3142 3141 3140 3139 3137 3134 3133 3133 3131 3131 3130 3128 3128 3128 3128 3128 3128 3128 3129 3129 3130 3132 3132 3132 3135 3133 3131 3131 3130 3131 3132 3130 3132 3134 3134 3133 3130
3147 3146 3145 3144 3143 3142 3141 3139 3139 3138 3137 3135 3134 3132 3131 3131 3130 3128 3127 3127 3126 3126 3126 3126 3126 3126 3126 3126 3127 3127 3126 3130 3130 3129 3128 3127 3127 3128 3127 3126 3129 3132 3132 3129 3128
3144 3143 3141 3140 3139 3137 3136 3135 3134 3134 3133 3132 3130 3128 3127 3127 3130 3126 3126 3126 3125 3124 3124 3123 3123 3122 3123 3123 3124 3123 3124 3125 3124 3125 3124 3123 3123 3122 3124 3124 3125 3127 3128 3127 3125
3140 3139 3138 3136 3135 3134 3133 3132 3131 3130 3129 3128 3127 3126 3125 3125 3124 3125 3123 3122 3122 3122 3121 3121 3120 3120 3120 3121 3123 3121 3120 3120 3120 3120 3119 3118 3118 3118 3117 3118 3120 3122 3121 3123 3121
3139 3138 3136 3135 3134 3132 3131 3130 3128 3127 3125 3123 3122 3122 3121 3121 3119 3118 3119 3120 3119 3119 3119 3119 3119 3120 3118 3116 3117 3117 3116 3114 3114 3113 3114 3113 3113 3114 3114 3114 3113 3115 3116 3116 3117
3137 3136 3135 3134 3132 3131 3129 3128 3127 3125 3123 3121 3120 3118 3118 3118 3116 3115 3115 3115 3115 3116 3116 3117 3117 3117 3117 3115 3113 3111 3110 3109 3108 3108 3107 3109 3108 3108 3109 3108 3107 3109 3111 3112 3112
3134 3133 3131 3129 3127 3126 3124 3123 3122 3121 3121 3119 3117 3115 3115 3114 3113 3112 3111 3110 3110 3111 3112 3112 3112 3111 3112 3112 3111 3110 3108 3104 3105 3103 3105 3107 3102 3106 3106 3105 3104 3104 3106 3109 3109
3130 3129 3127 3126 3124 3122 3121 3119 3117 3116 3116 3114 3112 3112 3109 3109 3108 3107 3107 3106 3106 3107 3107 3106 3106 3107 3109 3108 3106 3106 3101 3103 3103 3103 3102 3101 3098 3102 3101 3101 3101 3101 3101 3102 3104
3125 3123 3122 3120 3118 3116 3114 3113 3111 3110 3110 3109 3106 3108 3105 3102 3104 3104 3104 3104 3103 3102 3101 3102 3101 3100 3101 3103 3100 3101 3100 3098 3099 3103 3099 3097 3095 3095 3096 3098 3096 3095 3095 3096 3098
3119 3118 3116 3115 3113 3110 3111 3109 3109 3107 3106 3105 3103 3101 3100 3098 3099 3099 3097 3098 3098 3098 3097 3098 3098 3094 3096 3098 3098 3099 3098 3095 3095 3095 3095 3092 3091 3092 3092 3090 3089 3088 3087 3089 3090
3114 3113 3111 3110 3108 3108 3106 3104 3103 3102 3099 3099 3097 3095 3094 3092 3092 3090 3092 3095 3093 3092 3095 3098 3091 3094 3095 3096 3095 3094 3093 3090 3091 3093 3093 3089 3084 3085 3085 3082 3080 3079 3080 3081 3082
3111 3110 3109 3108 3106 3106 3105 3103 3101 3098 3094 3091 3090 3088 3088 3090 3087 3086 3086 3083 3086 3090 3091 3089 3088 3090 3089 3090 3089 3086 3088 3086 3086 3086 3086 3084 3077 3079 3077 3075 3075 3073 3073 3074 3076
3108 3107 3105 3105 3105 3102 3102 3100 3099 3096 3092 3087 3085 3085 3084 3085 3087 3086 3085 3087 3085 3084 3087 3085 3083 3084 3086 3085 3088 3082 3086 3084 3082 3082 3079 3082 3072 3073 3072 3071 3071 3070 3070 3071 3070
3102 3101 3100 3098 3098 3097 3098 3097 3097 3096 3093 3088 3084 3082 3083 3085 3083 3082 3083 3083 3083 3082 3084 3079 3081 3080 3082 3083 3083 3078 3081 3079 3076 3075 3075 3072 3076 3059 3066 3065 3065 3065 3064 3065 3066
3096 3095 3093 3093 3092 3095 3094 3095 3095 3096 3088 3082 3081 3082 3084 3083 3083 3080 3080 3082 3081 3078 3077 3074 3075 3077 3079 3078 3078 3077 3075 3074 3073 3071 3068 3061 3068 3051 3061 3061 3059 3058 3058 3059 3061
3089 3089 3088 3088 3089 3092 3090 3091 3097 3090 3082 3080 3079 3080 3081 3079 3081 3080 3079 3079 3080 3075 3074 3072 3066 3072 3075 3072 3072 3072 3072 3070 3068 3062 3053 3054 3055 3051 3054 3055 3054 3056 3054 3053 3055
3084 3083 3083 3083 3085 3086 3087 3090 3086 3080 3074 3074 3076 3078 3079 3077 3079 3077 3078 3079 3075 3072 3071 3069 3057 3064 3064 3067 3068 3065 3066 3066 3060 3055 3049 3048 3046 3047 3048 3048 3047 3051 3049 3048 3051
3076 3074 3075 3077 3077 3079 3081 3079 3077 3073 3072 3070 3072 3074 3077 3075 3074 3074 3077 3078 3074 3070 3074 3069 3058 3056 3060 3058 3061 3060 3059 3062 3051 3048 3047 3042 3039 3038 3042 3042 3042 3042 3042 3043 3044
3068 3066 3067 3069 3067 3070 3070 3070 3070 3066 3067 3068 3069 3072 3074 3073 3072 3072 3073 3076 3075 3073 3070 3071 3060 3053 3054 3053 3057 3060 3056 3054 3050 3046 3042 3034 3032 3031 3034 3036 3034 3035 3038 3038 3040
3059 3057 3057 3059 3057 3059 3062 3066 3063 3062 3063 3065 3066 3068 3070 3070 3071 3071 3070 3071 3071 3071 3068 3068 3067 3051 3056 3058 3054 3051 3051 3051 3048 3046 3039 3038 3035 3038 3031 3026 3027 3030 3032 3033 3034
3051 3048 3047 3045 3049 3047 3054 3058 3059 3059 3059 3060 3062 3063 3064 3066 3068 3068 3069 3068 3064 3064 3064 3066 3061 3052 3051 3049 3049 3048 3050 3047 3045 3040 3040 3036 3031 3031 3028 3026 3024 3029 3029 3027 3028
3038 3036 3035 3035 3035 3035 3045 3049 3052 3055 3054 3055 3057 3058 3058 3062 3065 3064 3065 3066 3063 3059 3060 3061 3058 3051 3045 3048 3044 3044 3043 3044 3043 3040 3037 3037 3032 3025 3029 3024 3030 3028 3028 3024 3023
3029 3024 3024 3025 3030 3033 3038 3040 3046 3049 3048 3050 3051 3052 3052 3057 3060 3059 3059 3060 3059 3054 3053 3055 3055 3053 3051 3050 3046 3039 3039 3041 3040 3037 3034 3031 3027 3026 3027 3023 3020 3030 3028 3025 3024
3016 3013 3013 3013 3021 3027 3031 3035 3039 3045 3041 3044 3046 3049 3047 3052 3054 3054 3055 3054 3053 3052 3050 3051 3048 3048 3045 3044 3042 3039 3035 3035 3035 3033 3033 3025 3026 3024 3024 3024 3017 3019 3026 3023 3024
3011 3006 3008 3008 3013 3021 3026 3030 3033 3038 3039 3040 3042 3045 3040 3045 3050 3048 3051 3049 3045 3046 3044 3045 3041 3042 3037 3038 3036 3033 3031 3029 3028 3027 3025 3022 3021 3026 3023 3024 3017 3018 3022 3022 3023
3004 3002 3004 3004 3009 3016 3019 3024 3029 3033 3035 3037 3042 3044 3039 3041 3043 3044 3043 3040 3037 3037 3036 3038 3038 3037 3030 3033 3031 3024 3023 3022 3019 3018 3018 3014 3017 3020 3018 3019 3016 3014 3014 3019 3021
Wind_Speed
16 16 17 18 18 18 18 18 17 17 17 17 18 17 16 16 17 18 14 15 13 14 13 14 13 11 11 10 10 10 13 9 8 12 15 11 18 8 12 18 16 19 20 13 20
18 19 19 20 20 20 20 19 19 19 19 19 20 20 19 16 16 16 16 14 13 13 13 14 14 11 11 10 12 11 14 8 7 15 11 11 14 9 13 12 16 15 15 23 29
20 21 21 22 22 21 21 21 21 21 21 21 20 21 22 20 17 14 7 8 8 7 8 8 10 10 11 11 14 14 17 14 11 16 19 21 18 13 17 17 12 17 19 23 26
18 19 19 20 21 21 21 21 22 22 22 22 21 21 21 20 13 11 16 15 15 15 14 13 12 14 13 14 11 17 19 18 18 21 23 22 20 18 15 22 16 16 20 18 24
16 17 17 18 19 20 20 20 20 20 20 21 22 22 22 20 21 18 18 17 14 14 14 14 14 13 15 11 9 19 20 21 21 22 25 25 25 24 25 24 20 22 23 30 21
17 17 17 18 19 19 19 19 18 18 17 17 18 19 20 21 19 21 19 17 18 15 15 14 13 11 17 17 17 18 13 21 22 23 23 25 25 21 24 23 23 25 26 29 30
19 19 19 20 21 21 21 20 20 20 18 18 18 18 18 18 17 20 21 20 17 16 15 13 14 16 10 16 16 19 24 24 23 21 21 19 23 24 16 16 22 22 21 26 27
22 22 22 22 22 23 23 23 22 21 21 20 19 19 18 20 21 20 21 21 20 19 19 20 21 24 21 21 21 19 22 24 13 13 17 17 27 16 11 13 13 19 21 24 25
24 25 25 25 24 23 24 24 23 22 22 21 21 20 23 16 14 13 14 15 15 15 16 19 23 23 20 22 21 16 23 19 19 15 14 16 21 17 10 18 20 20 21 19 25
24 25 25 25 25 24 23 22 20 19 16 15 18 15 14 18 14 16 16 16 18 18 18 20 22 22 23 21 24 15 21 22 20 10 16 19 22 20 21 18 24 22 20 19 19
26 26 26 26 26 25 23 23 22 23 15 16 20 20 25 28 26 27 28 27 25 23 23 20 20 25 22 20 20 23 25 28 26 22 23 29 31 29 25 30 31 30 29 27 26
29 28 27 24 22 22 23 23 21 23 24 18 20 23 25 28 30 29 26 25 22 22 15 17 28 22 20 21 24 25 25 28 27 23 21 27 30 26 26 28 29 28 28 28 25
31 28 28 28 24 23 21 19 17 20 24 24 19 19 20 19 17 12 16 15 17 17 17 24 21 9 24 20 21 27 27 28 26 23 23 26 35 31 22 24 24 19 22 23 27
32 31 29 27 27 22 17 17 16 17 18 12 7 8 10 8 7 10 10 9 7 12 16 21 23 28 28 31 23 31 22 24 23 22 22 17 26 31 25 23 18 20 20 23 24
29 28 28 25 23 20 19 16 14 12 5 3 9 9 4 7 8 9 7 8 7 10 12 15 11 7 13 16 17 33 22 21 21 20 20 26 16 35 19 23 24 19 19 22 26
29 23 23 24 24 19 18 17 11 4 8 4 7 6 5 5 7 10 5 9 14 15 17 22 21 22 22 20 18 19 21 23 21 19 16 32 24 33 26 21 14 16 17 23 22
30 26 24 22 25 18 18 15 6 8 1 5 8 7 5 8 7 11 11 9 11 14 15 22 28 22 17 25 20 21 21 10 9 9 11 14 19 29 14 15 12 15 14 23 19
27 25 25 23 22 22 19 12 12 10 10 10 6 9 7 14 9 15 15 6 9 15 15 12 34 4 13 6 16 22 25 18 5 7 7 14 6 11 10 14 23 25 32 37 33
34 34 30 30 27 25 22 20 10 13 16 14 11 8 5 3 10 13 10 9 9 14 8 11 25 27 17 22 12 26 26 25 34 35 19 25 28 31 26 25 26 28 29 27 24
37 41 41 34 31 26 26 26 16 21 19 13 8 3 4 10 13 9 7 6 7 13 13 6 22 25 13 20 21 13 19 19 14 3 9 10 19 19 24 34 28 25 21 20 21
32 43 48 45 40 29 28 22 21 22 16 9 9 8 7 10 6 7 6 8 10 7 10 13 14 38 34 16 23 27 18 18 14 14 5 8 9 23 24 28 24 23 22 20 15
43 48 49 43 34 30 27 23 24 22 15 14 14 15 13 11 9 7 8 10 14 18 19 19 25 33 33 32 26 32 27 16 9 9 15 7 22 17 5 6 11 18 17 20 19
38 43 46 40 33 32 25 26 23 16 16 18 13 14 14 8 5 3 7 12 15 16 8 17 12 20 24 19 15 24 9 9 16 5 13 6 9 12 10 18 11 3 8 9 12
44 43 36 33 31 28 27 23 23 22 21 20 17 12 8 6 5 8 16 16 18 21 24 19 20 22 22 25 27 34 29 26 21 15 17 23 24 20 32 22 12 6 9 8 9
49 36 35 29 39 26 22 17 21 24 22 18 13 12 8 6 11 12 16 21 16 17 16 18 27 27 29 27 26 28 31 27 28 29 26 31 28 25 19 20 15 8 7 15 8
32 36 32 33 34 33 24 19 24 22 17 16 15 11 8 8 13 22 19 23 25 22 19 20 27 27 33 28 27 32 32 32 31 31 31 32 31 23 23 15 13 12 11 12 11
21 38 34 28 25 25 19 23 24 20 15 10 11 10 8 9 16 22 23 25 25 22 24 24 26 26 32 27 28 31 29 29 31 29 30 34 30 24 27 18 13 15 20 17 10
Wind_Direction
307 308 309 309 309 310 311 312 313 315 317 316 314 312 311 310 307 303 298 301 291 279 276 278 279 279 271 271 266 246 245 267 288 289 272 268 268 259 258 206 239 234 229 244 242
309 309 309 307 307 309 310 311 312 312 312 312 312 310 311 312 307 303 299 299 293 283 272 272 275 273 273 275 273 264 264 263 293 274 254 251 275 233 275 264 215 247 234 238 245
307 307 306 306 307 306 306 306 306 304 303 303 303 305 308 311 312 310 310 315 309 306 289 271 273 272 267 267 271 274 268 259 265 276 264 260 254 266 243 240 227 243 262 261 266
313 311 310 309 308 305 303 302 302 301 300 299 298 297 299 303 302 298 299 298 287 281 276 271 269 268 269 264 273 275 273 283 286 266 275 276 271 256 245 266 221 225 229 254 266
312 313 313 314 313 312 311 309 307 305 303 302 298 296 294 293 292 290 287 289 286 280 273 268 263 263 263 265 273 263 268 275 269 276 280 280 277 274 261 251 242 222 234 220 222
311 313 315 316 315 316 316 315 312 309 306 304 301 298 294 296 289 291 288 283 284 278 273 267 257 247 258 244 248 254 238 257 269 272 270 276 281 280 279 277 262 240 239 252 242
318 320 321 320 320 318 317 316 315 312 309 307 303 300 298 290 293 287 284 284 277 276 271 263 249 245 264 270 270 265 268 277 278 289 291 288 281 277 316 292 265 257 263 250 256
312 313 313 312 312 311 312 311 310 309 306 303 301 300 299 299 296 286 285 283 281 274 266 260 256 252 253 258 260 280 285 279 311 270 265 251 268 295 294 269 275 279 260 252 262
310 311 310 310 309 309 308 308 307 300 293 292 291 292 293 292 286 285 280 275 275 275 269 262 255 258 257 262 271 268 262 272 278 276 250 263 279 276 268 291 288 253 243 247 249
306 306 305 304 303 304 305 308 306 302 299 293 287 287 268 269 274 275 271 274 278 274 270 259 256 253 258 239 246 261 269 275 288 279 272 274 283 279 277 267 281 276 262 258 256
301 300 303 305 305 302 305 307 307 301 298 288 281 270 270 276 275 271 275 269 273 272 267 268 256 244 260 256 267 272 277 280 281 267 288 280 284 285 285 280 257 251 258 266 252
300 300 302 306 308 316 323 324 318 309 306 294 284 275 273 270 272 273 266 271 272 267 266 246 251 262 255 255 260 266 273 274 280 281 280 286 280 277 277 289 282 273 265 263 262
300 299 301 306 307 317 324 325 321 315 312 305 287 273 272 268 267 252 265 254 239 242 246 247 252 280 255 265 263 256 261 271 277 289 281 287 285 286 290 300 284 280 277 271 258
304 300 300 303 304 307 314 316 316 317 309 289 271 267 260 260 267 272 272 261 239 256 253 261 267 253 257 265 260 269 267 269 277 284 281 275 287 275 272 268 265 268 279 272 261
298 295 294 293 295 297 308 315 311 318 301 232 254 235 216 186 233 290 268 264 257 229 251 242 283 267 273 283 276 267 271 267 267 279 281 273 260 275 280 275 281 266 262 248 248
294 297 292 288 287 293 303 311 306 291 245 219 240 221 152 265 238 254 238 312 308 294 278 269 271 268 273 274 269 272 271 268 258 261 257 251 244 267 269 277 276 254 241 249 255
293 292 299 283 289 289 299 297 289 225 255 250 239 237 237 259 292 308 293 322 305 296 280 276 267 261 270 276 276 268 265 265 248 214 232 250 246 256 269 274 271 235 248 258 259
287 292 290 291 289 277 283 255 223 240 241 225 242 292 316 295 288 284 324 336 291 276 288 296 299 329 252 283 312 280 254 235 239 233 259 268 229 257 272 270 267 259 261 274 269
275 284 285 284 283 267 255 221 245 238 246 248 282 302 301 308 328 331 347 334 287 301 309 323 274 267 264 279 312 265 286 272 270 262 279 269 265 265 275 267 257 255 262 275 279
264 271 274 276 263 248 237 224 236 244 249 272 296 290 290 300 319 328 327 312 317 336 328 300 296 289 315 298 265 290 280 298 276 279 246 246 249 253 267 247 237 248 253 256 265
261 268 270 266 262 245 221 219 243 242 256 270 260 262 274 311 313 312 271 273 295 280 299 313 285 284 300 306 302 312 314 316 294 262 258 275 300 302 280 225 216 235 248 259 266
269 268 267 262 246 225 207 220 233 244 260 271 265 280 286 285 298 288 271 253 261 285 296 292 287 287 293 300 281 263 288 291 286 295 297 331 270 288 122 29 225 264 250 249 242
259 265 261 255 222 203 202 214 225 249 248 255 263 273 274 280 303 278 283 285 289 286 284 299 291 313 306 307 289 257 267 274 324 310 263 273 257 124 116 87 50 150 209 192 195
271 251 250 245 220 207 203 212 234 235 247 252 258 258 240 271 270 276 290 289 291 288 297 296 283 268 273 282 294 299 298 300 288 294 302 292 291 288 266 346 109 89 89 156 173
266 242 240 217 206 188 203 212 226 240 232 245 249 227 232 244 282 292 304 305 281 286 285 278 277 277 274 278 285 286 293 291 282 274 261 279 284 298 265 302 359 167 94 89 136
252 243 223 211 199 203 203 214 226 235 242 241 225 216 202 249 291 296 296 288 284 285 274 274 281 285 283 280 282 283 281 282 279 273 272 274 276 297 299 278 1 316 200 110 106
287 243 233 217 189 192 213 224 227 235 237 223 215 219 242 287 297 300 289 301 280 267 257 262 273 281 279 287 291 283 276 276 279 274 275 256 271 279 287 255 323 322 241 212 141